Wind_Speed
3 3 3 3 4 5 5 6 7 8 10 11 13 14 15 16 17 18 18 18 18 18 18 18 18 18 18 19 20 21 21 22 22 22 22 22 22 22 23 23 23 22 23
2 3 3 4 5 6 7 8 10 11 13 14 15 17 18 18 18 18 18 18 18 18 18 17 18 18 18 19 20 21 21 22 22 23 23 23 24 24 25 25 26 26 26
4 5 5 6 7 8 10 11 12 14 15 16 17 18 18 18 18 19 19 19 19 19 19 19 19 19 20 20 21 22 23 23 24 24 24 24 25 25 26 27 28 28 29
6 7 8 8 9 11 12 13 14 15 16 16 17 17 17 18 18 19 19 20 20 20 21 22 22 22 23 23 24 25 25 26 26 27 27 28 28 28 28 29 30 30 31
9 10 10 11 12 12 13 14 14 15 16 16 16 16 17 17 18 19 19 20 21 22 22 23 24 24 25 26 26 27 28 29 30 30 31 32 32 33 33 33 33 34 34
11 11 12 12 13 13 13 14 14 15 15 15 16 16 17 17 18 18 19 20 21 22 23 24 25 26 27 28 29 30 31 32 33 34 35 36 36 37 37 37 38 38 38
12 12 12 12 13 13 13 13 14 14 14 15 15 16 16 17 18 19 19 20 21 22 23 24 25 26 27 28 30 31 32 34 35 36 38 39 40 41 41 42 42 42 43
13 12 12 12 12 12 13 13 13 14 14 15 15 16 17 18 19 19 20 21 21 22 23 24 24 25 26 28 29 31 32 34 36 37 39 40 42 43 44 45 45 46 47
12 12 12 12 12 12 12 12 13 14 15 16 17 18 18 19 20 21 21 22 23 23 24 24 25 26 26 27 29 30 32 33 35 38 39 41 43 44 46 47 48 49 50
12 11 11 11 11 11 12 12 13 14 16 17 18 19 20 21 22 23 24 25 25 26 26 27 28 28 29 29 30 30 32 33 35 37 39 41 43 45 47 49 50 51 52
11 11 10 10 10 11 11 12 14 15 16 18 19 20 21 22 24 25 26 27 28 29 30 30 31 31 32 32 33 33 33 34 35 37 38 40 42 45 47 50 52 54 55
10 10 10 10 10 11 12 13 14 16 17 19 20 21 22 24 25 27 28 29 30 31 32 33 33 34 35 35 36 36 37 37 37 38 39 41 42 44 47 49 52 54 56
10 10 10 10 10 11 12 14 15 17 18 19 21 22 23 25 26 27 29 30 31 32 33 34 35 36 37 38 39 39 40 40 41 41 42 43 44 45 47 50 52 54 57
11 11 11 11 12 12 14 15 16 17 19 20 22 23 24 25 27 28 30 31 33 34 35 36 37 38 39 40 41 41 42 43 43 44 45 46 47 48 50 52 53 56 58
12 12 13 13 14 15 16 17 18 20 21 23 24 25 26 27 28 30 31 33 35 36 37 38 39 40 41 42 43 44 45 45 46 47 48 49 50 52 53 54 56 58 60
14 14 15 16 17 18 19 20 22 23 24 25 27 28 29 30 31 32 34 36 37 38 39 40 41 42 43 44 45 46 47 48 49 50 51 52 54 55 57 58 59 61 62
16 17 18 18 19 21 22 23 25 26 28 29 30 31 33 34 35 36 37 39 40 41 42 43 44 45 45 46 47 48 49 51 52 53 54 56 57 59 60 62 63 65 66
20 20 21 22 23 24 25 27 28 30 31 32 33 35 36 37 38 39 40 41 43 44 46 47 47 48 48 48 49 50 51 53 54 56 58 59 61 62 64 65 66 68 69
23 24 24 25 27 28 29 30 31 33 34 35 36 38 39 39 40 41 43 44 45 47 49 50 51 51 51 51 51 52 54 55 56 58 60 62 64 65 66 68 68 70 71
26 27 28 29 30 31 32 33 34 36 37 38 40 41 41 42 43 44 46 47 48 50 52 53 53 53 53 53 53 54 55 57 59 60 62 64 66 67 68 69 70 71 73
29 30 31 32 33 34 35 36 37 38 40 41 43 44 45 45 46 47 48 49 51 52 54 55 55 55 56 56 56 56 57 58 60 62 63 65 67 68 69 71 72 73 74
32 33 35 35 37 37 39 40 40 42 43 44 46 47 48 49 49 49 51 52 53 55 57 57 57 57 57 58 58 58 59 60 60 61 64 66 68 69 71 72 73 75 76
35 37 38 39 40 41 42 43 43 45 45 47 48 50 51 52 52 53 53 55 55 57 58 59 59 59 59 59 59 60 61 62 63 63 64 67 69 70 72 73 75 77 79
39 41 41 42 43 44 46 46 47 48 49 50 52 53 54 55 55 55 56 57 58 58 60 60 60 60 60 60 60 61 63 64 65 65 66 68 69 71 72 74 76 78 81
42 43 44 46 47 48 49 50 51 51 52 53 54 55 56 57 58 58 59 60 60 60 61 62 62 62 61 61 62 63 64 66 67 67 66 68 70 71 73 75 77 79 81
45 46 48 49 50 51 52 53 53 54 55 56 57 57 58 59 59 60 62 62 62 61 62 63 63 63 62 62 63 65 66 67 68 68 68 68 69 70 73 75 78 80 81
Wind_Direction
213 223 240 260 272 278 283 286 290 294 297 298 298 297 296 295 293 292 290 287 284 282 279 277 275 273 272 270 270 271 271 271 269 268 266 264 262 261 261 260 258 255 253
240 260 272 279 284 286 288 291 295 297 298 298 298 297 297 296 295 294 292 290 288 285 283 280 277 275 273 272 271 271 271 272 271 269 267 265 264 262 261 261 260 259 258
275 281 284 287 290 291 293 295 297 299 300 300 299 299 299 298 298 297 295 294 292 289 287 284 282 279 276 274 274 273 272 272 271 270 269 268 266 264 263 262 261 261 260
285 287 289 290 292 294 296 298 300 301 302 302 301 301 300 300 299 298 297 295 294 292 290 288 286 283 280 278 276 275 274 273 272 272 271 270 268 266 265 264 262 262 261
286 288 290 291 293 295 297 299 301 302 302 303 303 302 302 301 300 299 298 297 296 294 292 290 288 285 283 280 279 277 276 274 273 273 272 271 270 268 267 266 265 263 262
286 288 290 292 294 296 298 300 302 303 304 305 305 304 303 303 303 302 301 299 298 296 294 292 290 288 286 283 281 279 277 275 274 274 273 272 271 270 268 267 266 265 264
287 288 291 293 295 298 300 302 304 305 306 307 307 307 306 306 306 305 304 303 301 299 297 294 292 290 287 285 283 281 279 277 275 274 273 272 271 270 269 267 266 265 264
287 289 291 294 297 300 303 305 306 308 309 310 309 309 309 308 308 307 306 305 304 302 300 297 295 293 291 288 286 284 282 280 278 277 275 274 272 271 270 269 267 266 265
285 289 292 296 299 302 304 306 309 310 311 311 310 309 309 308 307 306 306 305 304 302 300 299 297 295 293 291 289 287 285 283 281 279 277 276 274 273 271 270 269 267 266
284 288 292 296 300 303 305 308 310 311 310 310 309 309 308 307 306 305 304 303 302 300 298 297 296 295 294 293 291 289 287 285 283 281 279 277 275 273 272 270 269 267 266
282 286 290 295 299 302 305 308 309 310 310 309 309 309 308 307 306 305 304 302 301 299 297 296 295 294 294 293 292 290 289 287 285 283 281 279 277 275 273 270 268 267 265
279 284 288 293 297 301 304 306 308 309 309 310 310 310 310 309 308 307 306 304 302 300 298 296 295 294 293 292 291 290 289 288 287 285 283 282 280 278 275 273 271 268 266
276 280 285 289 294 298 302 304 307 308 309 311 311 311 311 311 311 311 309 307 305 303 300 298 296 294 293 291 290 289 289 289 288 287 286 285 284 282 280 278 275 273 270
271 275 280 284 289 294 298 301 304 306 307 309 310 311 312 313 313 313 312 310 308 306 303 301 298 296 294 292 291 290 290 290 290 289 289 288 287 286 285 283 280 278 275
268 271 275 281 286 291 294 298 301 303 303 305 306 308 310 311 313 313 313 312 310 308 306 303 301 298 296 295 293 292 292 292 292 292 291 291 290 289 288 287 285 283 281
268 271 275 280 285 289 292 295 298 300 302 303 304 305 306 308 309 311 312 313 312 311 309 306 304 301 299 297 296 295 294 294 294 294 294 294 293 292 291 290 288 287 285
269 272 275 279 283 286 289 293 296 298 299 301 302 303 304 305 306 308 309 311 311 311 310 308 307 304 302 300 298 297 296 296 296 296 296 296 295 294 293 292 291 290 288
271 272 275 278 281 284 288 291 294 296 298 299 300 301 302 303 304 306 307 308 309 310 311 310 308 306 304 301 300 298 298 297 297 297 297 297 296 296 295 294 293 292 291
273 274 276 277 280 282 286 289 291 294 296 297 298 299 301 302 303 304 305 306 308 309 310 310 308 307 305 302 301 299 298 298 298 298 298 297 297 297 296 295 295 294 294
274 276 276 277 279 282 285 287 289 292 294 296 297 298 299 301 302 302 303 304 306 307 309 309 308 306 305 303 301 300 300 299 299 299 299 299 299 298 298 297 297 296 296
274 275 276 277 279 281 283 285 288 290 292 295 296 297 298 299 300 301 302 303 304 306 307 308 306 306 305 303 302 300 300 300 301 300 300 300 300 299 299 299 299 298 298
273 274 275 277 278 281 282 284 287 289 291 293 295 295 297 298 299 300 301 302 303 304 306 306 306 305 305 304 302 301 300 299 299 300 301 301 301 301 301 301 302 302 301
273 273 275 277 279 281 282 284 286 288 290 292 293 294 296 297 298 298 299 300 301 303 304 305 305 304 304 304 302 302 301 301 301 300 301 302 302 303 303 304 304 305 304
273 275 277 278 279 281 283 285 286 289 291 291 292 294 295 296 297 297 297 298 300 301 302 303 304 304 304 303 302 302 302 302 301 301 302 302 302 303 304 305 306 306 306
276 277 278 279 280 282 284 286 288 289 290 291 292 294 294 294 295 296 296 296 298 300 300 301 303 303 303 303 302 303 303 302 302 302 302 303 303 304 305 306 307 307 308
281 281 281 282 283 284 285 287 288 289 290 291 292 292 293 293 294 294 294 295 297 299 299 301 302 303 304 303 303 303 303 303 303 302 303 303 304 305 306 307 308 309 309
Height
5883 5882 5882 5882 5882 5881 5881 5881 5880 5879 5878 5878 5877 5876 5875 5874 5873 5872 5872 5871 5870 5869 5869 5868 5868 5868 5867 5867 5866 5865 5865 5865 5866 5866 5866 5867 5867 5867 5868 5868 5869 5870 5870
5883 5882 5882 5881 5881 5880 5880 5879 5878 5877 5876 5875 5874 5873 5872 5871 5870 5869 5868 5867 5866 5866 5865 5864 5864 5864 5863 5863 5862 5861 5861 5861 5861 5862 5862 5863 5863 5863 5863 5864 5864 5865 5866
5882 5881 5881 5880 5880 5879 5878 5877 5876 5875 5874 5873 5871 5870 5869 5867 5866 5865 5864 5863 5862 5861 5861 5860 5860 5860 5859 5859 5858 5857 5857 5857 5857 5857 5857 5858 5858 5859 5859 5859 5859 5860 5860
5881 5880 5880 5879 5878 5877 5876 5875 5873 5872 5871 5870 5868 5867 5866 5864 5863 5862 5860 5859 5858 5857 5856 5855 5855 5854 5854 5854 5853 5852 5852 5852 5852 5852 5852 5852 5853 5853 5854 5854 5854 5854 5855
5880 5879 5878 5877 5876 5874 5873 5872 5871 5869 5868 5867 5865 5864 5862 5861 5860 5858 5857 5855 5854 5852 5851 5850 5849 5849 5848 5848 5847 5847 5846 5846 5846 5845 5845 5846 5846 5847 5847 5848 5848 5848 5849
5877 5876 5875 5874 5873 5872 5870 5869 5868 5866 5865 5863 5862 5861 5859 5858 5856 5855 5853 5851 5850 5848 5846 5845 5844 5843 5842 5841 5841 5840 5840 5839 5839 5838 5838 5838 5838 5839 5840 5840 5841 5841 5842
5875 5874 5873 5871 5870 5869 5867 5866 5865 5863 5862 5860 5859 5857 5856 5854 5852 5851 5849 5847 5845 5844 5842 5840 5838 5837 5836 5834 5833 5833 5832 5832 5831 5831 5830 5830 5830 5830 5831 5831 5832 5833 5833
5872 5871 5870 5868 5867 5866 5864 5863 5862 5860 5859 5857 5856 5854 5852 5850 5849 5847 5845 5843 5841 5839 5837 5835 5833 5832 5830 5828 5827 5826 5824 5824 5823 5822 5822 5821 5821 5821 5821 5821 5822 5823 5823
5869 5868 5866 5865 5864 5862 5861 5860 5858 5857 5855 5854 5852 5850 5848 5847 5845 5843 5841 5838 5836 5834 5832 5830 5828 5826 5825 5823 5821 5819 5818 5816 5815 5814 5813 5812 5811 5811 5811 5811 5811 5812 5812
5866 5865 5863 5862 5861 5859 5858 5857 5855 5854 5852 5850 5848 5846 5844 5842 5840 5838 5836 5834 5832 5829 5827 5825 5823 5821 5819 5817 5815 5813 5811 5809 5808 5806 5805 5803 5802 5802 5801 5801 5801 5801 5801
5863 5861 5860 5859 5857 5856 5855 5853 5852 5850 5848 5846 5844 5842 5840 5838 5835 5833 5831 5828 5826 5824 5821 5819 5816 5814 5812 5809 5807 5805 5803 5801 5799 5798 5796 5794 5793 5792 5791 5790 5789 5789 5789
5859 5858 5857 5855 5854 5853 5851 5850 5848 5846 5845 5842 5840 5838 5835 5833 5830 5828 5825 5822 5820 5817 5814 5812 5809 5806 5804 5801 5799 5797 5795 5792 5790 5788 5786 5785 5783 5781 5780 5778 5777 5777 5776
5856 5854 5853 5852 5851 5849 5848 5846 5845 5843 5841 5838 5836 5833 5831 5828 5825 5822 5819 5816 5813 5810 5807 5804 5801 5798 5795 5792 5790 5787 5785 5782 5780 5777 5775 5773 5771 5769 5767 5766 5764 5763 5762
5852 5851 5850 5848 5847 5846 5844 5843 5841 5839 5836 5834 5831 5828 5826 5822 5819 5816 5812 5809 5806 5802 5799 5796 5792 5789 5786 5783 5779 5776 5773 5771 5768 5765 5763 5760 5758 5755 5753 5751 5749 5747 5746
5849 5847 5846 5845 5843 5842 5840 5838 5836 5834 5832 5829 5826 5823 5820 5817 5813 5810 5806 5802 5798 5794 5791 5787 5783 5780 5776 5772 5769 5765 5761 5758 5755 5752 5749 5746 5743 5740 5737 5735 5732 5730 5727
5845 5843 5842 5841 5839 5837 5835 5833 5831 5829 5826 5823 5820 5817 5814 5810 5806 5803 5799 5795 5790 5786 5782 5778 5774 5770 5766 5761 5757 5753 5749 5745 5741 5737 5734 5731 5728 5724 5721 5718 5714 5711 5708
5841 5839 5838 5836 5834 5832 5830 5828 5825 5823 5820 5817 5814 5810 5807 5803 5799 5795 5791 5786 5782 5778 5773 5769 5764 5759 5755 5750 5745 5741 5736 5731 5727 5723 5719 5715 5711 5707 5703 5699 5696 5692 5688
5836 5834 5833 5831 5829 5826 5824 5822 5819 5816 5813 5810 5806 5803 5799 5795 5791 5787 5782 5778 5773 5768 5763 5758 5753 5749 5744 5739 5734 5728 5723 5718 5713 5708 5704 5699 5695 5690 5686 5681 5677 5672 5667
5830 5828 5827 5825 5823 5820 5818 5815 5812 5809 5806 5802 5799 5795 5791 5786 5782 5777 5773 5768 5763 5758 5753 5748 5742 5737 5732 5727 5721 5716 5710 5705 5699 5694 5688 5683 5677 5672 5667 5662 5657 5652 5646
5824 5822 5820 5818 5816 5813 5810 5807 5805 5801 5797 5794 5790 5786 5782 5777 5773 5768 5763 5758 5753 5748 5742 5737 5731 5725 5719 5714 5709 5703 5697 5691 5685 5678 5672 5666 5660 5654 5648 5642 5637 5631 5625
5816 5814 5812 5810 5808 5805 5802 5799 5796 5793 5789 5785 5781 5776 5772 5768 5763 5758 5753 5747 5742 5737 5731 5725 5719 5713 5707 5701 5695 5690 5684 5678 5670 5663 5656 5649 5642 5636 5629 5622 5616 5610 5604
5809 5806 5804 5801 5799 5796 5793 5790 5787 5783 5780 5776 5771 5766 5761 5757 5752 5747 5742 5736 5730 5725 5719 5713 5706 5700 5693 5687 5681 5674 5669 5665 5659 5650 5641 5632 5624 5617 5609 5602 5594 5587 5580
5800 5797 5795 5792 5789 5786 5783 5780 5777 5773 5769 5765 5760 5755 5751 5746 5741 5736 5730 5724 5718 5712 5706 5700 5693 5687 5680 5673 5666 5660 5653 5647 5641 5635 5626 5616 5606 5597 5589 5581 5572 5563 5555
5791 5788 5785 5782 5779 5776 5772 5769 5766 5762 5759 5754 5749 5745 5739 5734 5729 5724 5718 5712 5706 5700 5693 5687 5680 5674 5666 5659 5652 5645 5638 5630 5623 5617 5610 5600 5590 5579 5570 5560 5551 5541 5531
5782 5779 5776 5772 5769 5765 5762 5758 5755 5751 5747 5742 5737 5733 5727 5721 5716 5710 5704 5698 5692 5686 5680 5673 5667 5660 5653 5645 5637 5630 5622 5614 5606 5599 5594 5583 5572 5561 5550 5540 5530 5519 5509
5772 5769 5766 5762 5759 5755 5751 5747 5743 5739 5735 5730 5725 5720 5714 5708 5703 5697 5690 5684 5679 5672 5665 5659 5652 5645 5638 5630 5622 5614 5605 5597 5589 5581 5575 5567 5557 5545 5531 5519 5508 5498 5486